Terminal Aerodrome Forecast
Issued by NWS Grand Forks, ND

Home | Current Version | Previous Version | Text Only | Print | Product List | Glossary Off
Versions: 1 2 3 4 5 6 7 8 9 10 11 12 13 14

000
FTUS43 KFGF 140500
TAFFAR
TAF
KFAR 140522Z 1406/1506 26009KT P6SM SKC
     FM141500 30012KT P6SM BKN050
     FM150000 30004KT P6SM SCT050=

USA.gov is the U.S. government's official web portal to all federal, state and local government web resources and services.